{"data":{"norad_id":54870,"epoch":"2026-05-25T02:52:12.823968Z","epoch_age_seconds":67813,"freshness":"FRESH","line1":"1 54870U 22177BC  26145.11959287  .00000439  00000+0  25494-4 0  9996","line2":"2 54870  43.0056  49.5949 0001335 285.4094  74.6610 15.27571138188784","mean_motion":15.27571138,"eccentricity":0.0001335,"inclination_deg":43.0056,"raan_deg":49.5949,"arg_perigee_deg":285.4094,"mean_anomaly_deg":74.661,"bstar":2.5494e-5,"rev_number":18878,"period_min":94.267295589608,"perigee_km":482.15966029763,"apogee_km":483.99160407042,"semimajor_km":6861.212632184,"source":"CELESTRAK","updated_at":"2026-05-25T13:38:17.729799Z"}}